KD8DLP-13 Weather Reports


time (UTC)temp
C
wind
direction
speed
KPH
gust
KPH
rain 1hr
cm
rain 24hr
cm
rain mn
cm
humidity
%
barometer
mb
20260509101656 11 150 1.6 1.6 0.00 0.00 0.00 90 1003.2
20260509101152 11 225 1.6 1.6 0.00 0.00 0.00 90 1003.2
20260509100650 11 259 1.6 3.2 0.00 0.00 0.00 90 1003.3
20260509100147 11 147 3.2 3.2 0.00 0.00 0.00 91 1003.2
20260509095643 11 338 3.2 4.8 0.00 0.00 0.00 91 1003.3
20260509095141 11 177 3.2 3.2 0.00 0.00 0.00 91 1003.5
20260509094637 11 259 0.0 0.0 0.00 0.00 0.00 91 1003.6
20260509094134 10 253 1.6 1.6 0.00 0.00 0.00 90 1003.6
20260509093633 10 167 1.6 1.6 0.00 0.00 0.00 90 1003.8
20260509093129 10 212 1.6 3.2 0.00 0.00 0.00 90 1003.6
20260509092627 11 300 0.0 1.6 0.00 0.00 0.00 90 1004.0
20260509092126 11 179 1.6 1.6 0.00 0.00 0.00 90 1003.7
20260509091624 11 184 1.6 3.2 0.00 0.00 0.00 89 1003.6
20260509091119 11 142 1.6 1.6 0.00 0.00 0.00 89 1003.6
20260509090617 11 111 3.2 4.8 0.00 0.00 0.00 89 1003.8
20260509090115 11 229 1.6 1.6 0.00 0.00 0.00 88 1003.7
20260509085612 11 1 1.6 3.2 0.00 0.00 0.00 88 1004.1
20260509085108 11 237 1.6 1.6 0.00 0.00 0.00 88 1004.0
20260509084605 11 118 3.2 4.8 0.00 0.00 0.00 88 1003.9
20260509084102 11 176 3.2 3.2 0.00 0.00 0.00 87 1004.0
20260509083559 11 86 1.6 3.2 0.00 0.00 0.00 86 1003.9
20260509083055 11 214 1.6 3.2 0.00 0.00 0.00 86 1004.1
20260509082553 11 254 1.6 3.2 0.00 0.00 0.00 85 1004.2
20260509082050 11 43 3.2 4.8 0.00 0.00 0.00 85 1004.0
20260509081547 11 147 4.8 4.8 0.00 0.00 0.00 84 1004.0
20260509081044 11 154 1.6 3.2 0.00 0.00 0.00 84 1004.5
20260509080542 11 149 1.6 1.6 0.00 0.00 0.00 83 1004.5
20260509080040 11 239 1.6 1.6 0.00 0.00 0.00 83 1004.6
20260509075537 11 222 1.6 1.6 0.00 0.00 0.00 82 1004.5
20260509075035 11 203 1.6 1.6 0.00 0.00 0.00 82 1004.5
20260509074532 11 228 1.6 1.6 0.00 0.00 0.00 82 1004.8
20260509074028 11 337 1.6 1.6 0.00 0.00 0.00 81 1004.9
20260509073525 10 197 1.6 3.2 0.00 0.00 0.00 81 1004.9
20260509073021 10 262 1.6 3.2 0.00 0.00 0.00 79 1004.9
20260509072518 11 299 1.6 1.6 0.00 0.00 0.00 79 1004.9
20260509072015 11 134 3.2 3.2 0.00 0.00 0.00 78 1005.0
20260509071511 10 212 0.0 0.0 0.00 0.00 0.00 77 1005.2
20260509071009 10 56 1.6 3.2 0.00 0.00 0.00 75 1005.3
20260509070506 10 202 1.6 1.6 0.00 0.00 0.00 74 1005.5
20260509070002 10 230 1.6 3.2 0.00 0.00 0.00 73 1005.3
20260509065458 11 271 1.6 1.6 0.00 0.00 0.00 71 1005.3
20260509064954 11 254 1.6 1.6 0.00 0.00 0.00 69 1005.4
20260509064452 11 259 1.6 1.6 0.00 0.00 0.00 68 1005.6
20260509063950 11 136 0.0 1.6 0.00 0.00 0.00 66 1005.4
20260509063445 11 232 0.0 1.6 0.00 0.00 0.00 64 1005.5
20260509062942 11 256 1.6 1.6 0.00 0.00 0.00 61 1005.6
20260509062439 11 227 1.6 1.6 0.00 0.00 0.00 58 1005.6
20260509061937 11 221 1.6 1.6 0.00 0.00 0.00 56 1005.6
20260509061434 11 223 1.6 1.6 0.00 0.00 0.00 54 1005.7
20260509060931 11 170 1.6 3.2 0.00 0.00 0.00 52 1005.8
20260509060429 11 245 1.6 3.2 0.00 0.00 0.00 49 1005.7
20260509055924 11 234 1.6 3.2 0.00 0.00 0.00 48 1005.9
20260509055419 11 118 3.2 8.0 0.00 0.00 0.00 47 1005.8
20260509054916 11 82 3.2 3.2 0.00 0.00 0.00 46 1005.9
20260509054413 11 118 1.6 3.2 0.00 0.00 0.00 45 1005.9
20260509053911 11 74 1.6 1.6 0.00 0.00 0.00 45 1005.9
20260509053408 11 252 1.6 3.2 0.00 0.00 0.00 45 1006.2
20260509052901 11 285 3.2 4.8 0.00 0.00 0.00 45 1006.0
20260509052358 11 97 3.2 3.2 0.00 0.00 0.00 46 1006.0
20260509051855 11 339 1.6 3.2 0.00 0.00 0.00 46 1006.1
20260509051354 11 126 1.6 3.2 0.00 0.00 0.00 45 1006.0
20260509050850 11 195 1.6 3.2 0.00 0.00 0.00 46 1006.0
20260509050347 11 90 4.8 8.0 0.00 0.00 0.00 45 1005.8
20260509045843 11 109 3.2 4.8 0.00 0.00 0.00 45 1006.0
20260509045341 10 101 1.6 3.2 0.00 0.00 0.00 46 1006.2
20260509044838 10 32 1.6 1.6 0.00 0.00 0.00 44 1006.1
20260509044335 11 210 1.6 1.6 0.00 0.00 0.00 44 1006.0
20260509043831 11 158 1.6 3.2 0.00 0.00 0.00 43 1006.0
20260509043327 11 177 1.6 3.2 0.00 0.00 0.00 43 1006.3
20260509042823 11 212 1.6 1.6 0.00 0.00 0.00 43 1006.2
20260509042320 11 226 1.6 1.6 0.00 0.00 0.00 41 1006.0
20260509041817 11 197 1.6 3.2 0.00 0.00 0.00 41 1006.2
20260509041314 11 231 1.6 3.2 0.00 0.00 0.00 40 1006.4
20260509040812 11 266 0.0 1.6 0.00 0.00 0.00 41 1006.3
20260509040309 11 199 1.6 1.6 0.00 0.00 0.00 42 1006.6
20260509035806 11 268 0.0 1.6 0.00 0.00 0.00 39 1006.4
20260509035306 11 153 1.6 1.6 0.00 0.00 0.00 39 1006.6
20260509034759 11 237 1.6 1.6 0.00 0.00 0.00 40 1006.8
20260509034257 11 210 3.2 3.2 0.00 0.00 0.00 39 1006.7
20260509033754 11 249 1.6 1.6 0.00 0.00 0.00 38 1006.6
20260509033251 11 203 0.0 1.6 0.00 0.00 0.00 40 1007.0
20260509032748 11 249 1.6 3.2 0.00 0.00 0.00 39 1006.7
20260509032245 11 252 1.6 1.6 0.00 0.00 0.00 43 1006.7
20260509031742 11 249 1.6 1.6 0.00 0.00 0.00 45 1007.1
20260509031240 11 251 1.6 1.6 0.00 0.00 0.00 37 1006.8
20260509030738 11 293 1.6 1.6 0.00 0.00 0.00 37 1007.1
20260509030235 11 247 1.6 1.6 0.00 0.00 0.00 36 1006.9
20260509025732 11 249 1.6 1.6 0.00 0.00 0.00 35 1006.9
20260509025227 11 41 1.6 1.6 0.00 0.00 0.00 36 1007.1
20260509024723 11 217 1.6 1.6 0.00 0.00 0.00 35 1007.3
20260509024219 11 205 1.6 1.6 0.00 0.00 0.00 35 1007.2
20260509023716 11 252 1.6 3.2 0.00 0.00 0.00 36 1007.4
20260509023214 11 225 1.6 1.6 0.00 0.00 0.00 36 1007.5
20260509022709 11 267 0.0 0.0 0.00 0.00 0.00 43 1007.4
20260509022208 10 277 0.0 0.0 0.00 0.00 0.00 41 1007.4
20260509021704 10 270 0.0 0.0 0.00 0.00 0.00 41 1007.5
20260509021202 11 270 0.0 0.0 0.00 0.00 0.00 41 1007.6
20260509020700 11 269 0.0 0.0 0.00 0.00 0.00 39 1007.5
20260509020156 12 269 0.0 0.0 0.00 0.00 0.00 39 1007.4
20260509015655 12 254 0.0 0.0 0.00 0.00 0.00 36 1007.3
20260509015153 12 247 0.0 0.0 0.00 0.00 0.00 38 1007.3
20260509014649 12 253 1.6 1.6 0.00 0.00 0.00 37 1007.4
20260509014145 12 330 0.0 1.6 0.00 0.00 0.00 35 1007.3
20260509013642 12 262 0.0 1.6 0.00 0.00 0.00 34 1007.4
20260509013138 13 249 0.0 0.0 0.00 0.00 0.00 37 1007.2
20260509012635 13 288 0.0 0.0 0.00 0.00 0.00 33 1007.3
20260509012132 13 224 1.6 3.2 0.00 0.00 0.00 33 1007.2
20260509011630 13 236 1.6 1.6 0.00 0.00 0.00 33 1007.2
20260509011126 13 192 3.2 3.2 0.00 0.00 0.00 33 1007.1
20260509010624 13 277 0.0 1.6 0.00 0.00 0.00 35 1007.3
20260509010120 13 212 1.6 3.2 0.00 0.00 0.00 34 1007.2
20260509005618 13 263 1.6 1.6 0.00 0.00 0.00 32 1007.2
20260509005114 14 296 0.0 1.6 0.00 0.00 0.00 32 1007.3
20260509004610 14 208 1.6 1.6 0.00 0.00 0.00 32 1007.2
20260509004107 14 236 0.0 1.6 0.00 0.00 0.00 34 1007.1
20260509003606 14 261 0.0 0.0 0.00 0.00 0.00 37 1007.2
20260509003103 14 238 0.0 1.6 0.00 0.00 0.00 32 1007.3
20260509002600 15 267 0.0 0.0 0.00 0.00 0.00 35 1007.3
20260509002057 15 263 0.0 0.0 0.00 0.00 0.00 36 1007.5
20260509001555 15 270 0.0 0.0 0.00 0.00 0.00 33 1007.5
20260509001050 15 255 0.0 1.6 0.00 0.00 0.00 29 1007.4
20260509000549 15 276 0.0 1.6 0.00 0.00 0.00 32 1007.7
20260509000045 15 221 0.0 1.6 0.00 0.00 0.00 29 1007.7
20260508235543 15 270 1.6 1.6 0.00 0.00 0.00 28 1007.7
20260508235039 16 218 0.0 1.6 0.00 0.00 0.00 30 1007.6
20260508234536 16 267 0.0 0.0 0.00 0.00 0.00 29 1007.8
20260508234032 16 264 3.2 3.2 0.00 0.00 0.00 29 1007.8
20260508233527 16 170 1.6 1.6 0.00 0.00 0.00 32 1007.9
20260508233024 16 244 1.6 1.6 0.00 0.00 0.00 30 1007.8
20260508232520 16 294 0.0 1.6 0.00 0.00 0.00 29 1008.0
20260508232017 16 265 1.6 1.6 0.00 0.00 0.00 28 1008.0
20260508231515 16 228 4.8 4.8 0.00 0.00 0.00 28 1008.0
20260508231012 16 312 0.0 1.6 0.00 0.00 0.00 29 1008.1
20260508230509 16 290 0.0 0.0 0.00 0.00 0.00 29 1008.0
20260508230005 16 306 1.6 3.2 0.00 0.00 0.00 28 1008.3
20260508225503 16 272 1.6 1.6 0.00 0.00 0.00 30 1008.2
20260508224959 16 273 0.0 0.0 0.00 0.00 0.00 29 1008.1
20260508224456 16 314 0.0 0.0 0.00 0.00 0.00 29 1008.1
20260508223954 16 279 1.6 3.2 0.00 0.00 0.00 29 1008.2
20260508223452 17 256 3.2 4.8 0.00 0.00 0.00 28 1008.1
20260508222949 16 276 3.2 3.2 0.00 0.00 0.00 28 1008.2
20260508222446 17 171 4.8 8.0 0.00 0.00 0.00 28 1008.0
20260508221942 17 263 1.6 1.6 0.00 0.00 0.00 29 1008.4
20260508221439 17 274 0.0 1.6 0.00 0.00 0.00 29 1008.3
20260508220935 17 273 4.8 4.8 0.00 0.00 0.00 26 1008.4
20260508220431 18 279 1.6 3.2 0.00 0.00 0.00 28 1008.3
20260508215928 18 261 0.0 0.0 0.00 0.00 0.00 27 1008.3
20260508215425 18 278 3.2 3.2 0.00 0.00 0.00 27 1008.4
20260508214921 18 282 1.6 3.2 0.00 0.00 0.00 27 1008.2
20260508214419 18 301 1.6 1.6 0.00 0.00 0.00 29 1008.2
20260508213915 19 247 3.2 4.8 0.00 0.00 0.00 27 1008.4
20260508213413 19 274 0.0 1.6 0.00 0.00 0.00 30 1008.4
20260508212908 18 271 3.2 3.2 0.00 0.00 0.00 28 1008.5
20260508212405 18 279 4.8 4.8 0.00 0.00 0.00 27 1008.5
20260508211901 18 319 4.8 9.7 0.00 0.00 0.00 27 1008.5
20260508211356 20 261 1.6 3.2 0.00 0.00 0.00 26 1008.5
20260508210854 20 273 0.0 1.6 0.00 0.00 0.00 28 1008.7
20260508210350 19 272 0.0 1.6 0.00 0.00 0.00 27 1008.6
20260508205847 19 290 3.2 3.2 0.00 0.00 0.00 27 1008.7
20260508205344 19 284 4.8 4.8 0.00 0.00 0.00 27 1008.6
20260508204840 19 271 0.0 1.6 0.00 0.00 0.00 29 1008.8
20260508204337 19 276 6.4 8.0 0.00 0.00 0.00 27 1009.0
20260508203833 18 267 0.0 1.6 0.00 0.00 0.00 27 1009.0
20260508203329 18 271 1.6 1.6 0.00 0.00 0.00 26 1008.8
20260508202825 18 275 1.6 1.6 0.00 0.00 0.00 28 1008.9
20260508202322 19 287 6.4 9.7 0.00 0.00 0.00 26 1009.1
20260508201814 18 267 4.8 4.8 0.00 0.00 0.00 28 1009.2
20260508201311 18 230 0.0 1.6 0.00 0.00 0.00 27 1009.2
20260508200807 18 279 3.2 3.2 0.00 0.00 0.00 27 1009.3
20260508200303 19 270 1.6 3.2 0.00 0.00 0.00 26 1009.2
20260508195800 18 275 0.0 0.0 0.00 0.00 0.00 30 1009.2
20260508195256 18 81 1.6 3.2 0.00 0.00 0.00 28 1009.3
20260508194753 18 271 1.6 1.6 0.00 0.00 0.00 29 1009.4
20260508194250 19 232 0.0 1.6 0.00 0.00 0.00 27 1009.4
20260508193747 20 228 1.6 1.6 0.00 0.00 0.00 26 1009.4
20260508193244 19 286 8.0 11.3 0.00 0.00 0.00 28 1009.5
20260508192740 18 259 1.6 1.6 0.00 0.00 0.00 29 1009.9
20260508192237 19 249 1.6 1.6 0.00 0.00 0.00 26 1009.8
20260508191735 18 286 0.0 0.0 0.00 0.00 0.00 27 1009.8
20260508191231 19 278 4.8 8.0 0.00 0.00 0.00 27 1009.9
20260508190728 19 272 1.6 3.2 0.00 0.00 0.00 27 1009.8
20260508190224 18 299 0.0 1.6 0.00 0.00 0.00 27 1009.9
20260508185721 19 280 4.8 8.0 0.00 0.00 0.00 27 1010.1
20260508185219 18 282 4.8 4.8 0.00 0.00 0.00 28 1010.0
20260508184716 19 219 4.8 4.8 0.00 0.00 0.00 25 1010.0
20260508184213 20 311 0.0 0.0 0.00 0.00 0.00 27 1009.8
20260508183710 20 278 3.2 3.2 0.00 0.00 0.00 26 1010.0
20260508183206 18 278 1.6 3.2 0.00 0.00 0.00 28 1010.2
20260508182702 18 187 1.6 3.2 0.00 0.00 0.00 27 1010.1
20260508182159 17 308 0.0 0.0 0.00 0.00 0.00 29 1010.2
20260508181655 17 269 4.8 8.0 0.00 0.00 0.00 27 1010.4
20260508181152 17 271 1.6 4.8 0.00 0.00 0.00 28 1010.1
20260508180648 17 263 1.6 3.2 0.00 0.00 0.00 28 1010.4
20260508180145 18 298 1.6 3.2 0.00 0.00 0.00 28 1010.5
20260508175642 19 274 4.8 4.8 0.00 0.00 0.00 26 1010.4
20260508175138 18 274 4.8 4.8 0.00 0.00 0.00 27 1010.5
20260508174636 17 279 1.6 3.2 0.00 0.00 0.00 28 1010.5
20260508174133 18 243 0.0 0.0 0.00 0.00 0.00 31 1010.5
20260508173630 19 259 1.6 1.6 0.00 0.00 0.00 27 1010.6
20260508173126 18 232 1.6 1.6 0.00 0.00 0.00 26 1010.8
20260508172623 18 266 0.0 1.6 0.00 0.00 0.00 27 1010.9
20260508172119 19 247 11.3 14.5 0.00 0.00 0.00 25 1010.7
20260508171616 18 267 3.2 3.2 0.00 0.00 0.00 28 1010.9
20260508171113 20 264 0.0 1.6 0.00 0.00 0.00 27 1011.0
20260508170610 20 261 4.8 4.8 0.00 0.00 0.00 28 1011.1
20260508170107 20 275 0.0 1.6 0.00 0.00 0.00 29 1011.0
20260508165604 20 269 1.6 3.2 0.00 0.00 0.00 26 1011.3
20260508165101 19 265 0.0 0.0 0.00 0.00 0.00 27 1011.6
20260508164557 18 263 0.0 1.6 0.00 0.00 0.00 27 1011.5
20260508164054 19 306 1.6 1.6 0.00 0.00 0.00 27 1011.4
20260508163552 18 282 0.0 0.0 0.00 0.00 0.00 37 1011.4
20260508163048 18 261 0.0 1.6 0.00 0.00 0.00 29 1011.4
20260508162545 17 265 3.2 4.8 0.00 0.00 0.00 32 1011.8
20260508162043 16 250 1.6 3.2 0.00 0.00 0.00 35 1011.7
20260508161539 17 115 4.8 8.0 0.00 0.00 0.00 36 1011.5
20260508161037 16 261 0.0 0.0 0.00 0.00 0.00 40 1011.6
20260508160535 17 302 1.6 4.8 0.00 0.00 0.00 35 1011.6
20260508160032 16 10 1.6 3.2 0.00 0.00 0.00 36 1011.8
20260508155529 16 138 4.8 8.0 0.00 0.00 0.00 36 1011.6
20260508155026 17 276 0.0 0.0 0.00 0.00 0.00 34 1011.8
20260508154523 16 261 0.0 0.0 0.00 0.00 0.00 40 1011.7
20260508154020 17 281 0.0 1.6 0.00 0.00 0.00 37 1011.8
20260508153516 16 87 1.6 3.2 0.00 0.00 0.00 38 1011.7
20260508153013 16 214 1.6 1.6 0.00 0.00 0.00 40 1011.7
20260508152510 16 108 4.8 8.0 0.00 0.00 0.00 42 1011.8
20260508152005 16 272 0.0 0.0 0.00 0.00 0.00 42 1011.8
20260508151503 16 267 0.0 0.0 0.00 0.00 0.00 43 1012.0
20260508150959 17 261 1.6 1.6 0.00 0.00 0.00 38 1012.0
20260508150456 16 256 0.0 0.0 0.00 0.00 0.00 40 1012.0
20260508145951 16 332 6.4 8.0 0.00 0.00 0.00 40 1012.0
20260508145448 16 266 3.2 3.2 0.00 0.00 0.00 40 1012.0
20260508144945 15 240 4.8 4.8 0.00 0.00 0.00 45 1012.1
20260508144442 15 246 1.6 3.2 0.00 0.00 0.00 44 1012.0
20260508143940 16 119 1.6 3.2 0.00 0.00 0.00 45 1012.1
20260508143437 15 326 0.0 0.0 0.00 0.00 0.00 49 1012.1
20260508142933 13 299 0.0 0.0 0.00 0.00 0.00 50 1012.2
20260508142431 15 98 4.8 4.8 0.00 0.00 0.00 47 1012.1
20260508141927 16 67 3.2 4.8 0.00 0.00 0.00 50 1012.3
20260508141424 14 146 1.6 3.2 0.00 0.00 0.00 55 1012.3
20260508140921 15 81 3.2 3.2 0.00 0.00 0.00 52 1012.3
20260508140418 13 20 1.6 1.6 0.00 0.00 0.00 52 1012.0
20260508135914 14 100 1.6 1.6 0.00 0.00 0.00 53 1012.4
20260508135411 14 119 1.6 3.2 0.00 0.00 0.00 56 1012.6
20260508134907 14 193 0.0 0.0 0.00 0.00 0.00 56 1012.4
20260508134403 14 252 3.2 4.8 0.00 0.00 0.00 57 1012.4
20260508133901 13 196 0.0 0.0 0.00 0.00 0.00 59 1012.2
20260508133358 13 128 0.0 0.0 0.00 0.00 0.00 61 1012.2
20260508132855 12 71 0.0 0.0 0.00 0.00 0.00 61 1012.4
20260508132353 13 190 0.0 0.0 0.00 0.00 0.00 60 1012.5
20260508131849 12 31 0.0 0.0 0.00 0.00 0.00 63 1012.6
20260508131345 12 210 0.0 0.0 0.00 0.00 0.00 66 1012.5
20260508130842 11 208 0.0 0.0 0.00 0.00 0.00 66 1012.7
20260508130338 11 112 0.0 0.0 0.00 0.00 0.00 68 1012.6
20260508125835 10 76 0.0 0.0 0.00 0.00 0.00 68 1012.6
20260508125331 10 89 0.0 0.0 0.00 0.00 0.00 68 1012.5
20260508124829 10 186 0.0 1.6 0.00 0.00 0.00 69 1012.5
20260508124326 10 131 1.6 1.6 0.00 0.00 0.00 70 1012.7
20260508123824 9 307 1.6 3.2 0.00 0.00 0.00 71 1012.7
20260508123322 9 224 0.0 0.0 0.00 0.00 0.00 72 1012.8
20260508122818 9 95 0.0 0.0 0.00 0.00 0.00 71 1012.7
20260508122315 9 90 0.0 0.0 0.00 0.00 0.00 71 1012.6
20260508121813 8 95 0.0 0.0 0.00 0.00 0.00 74 1012.7
20260508121311 7 100 0.0 0.0 0.00 0.00 0.00 77 1012.5
20260508120808 7 123 0.0 0.0 0.00 0.00 0.00 78 1012.6
20260508120306 6 210 0.0 0.0 0.00 0.00 0.00 79 1012.5
20260508115803 6 124 0.0 0.0 0.00 0.00 0.00 80 1012.3
20260508115300 6 101 1.6 1.6 0.00 0.00 0.00 83 1012.3
20260508114757 5 211 0.0 0.0 0.00 0.00 0.00 85 1012.1
20260508114254 5 233 0.0 0.0 0.00 0.00 0.00 87 1012.2
20260508113750 4 222 0.0 0.0 0.00 0.00 0.00 89 1012.1
20260508113249 3 228 0.0 0.0 0.00 0.00 0.00 92 1012.0
20260508112745 2 259 0.0 0.0 0.00 0.00 0.00 94 1012.0
20260508112242 2 268 0.0 0.0 0.00 0.00 0.00 95 1012.2
20260508111738 2 270 0.0 0.0 0.00 0.00 0.00 95 1012.3
20260508111236 2 269 0.0 0.0 0.00 0.00 0.00 95 1012.2
20260508110732 2 258 0.0 0.0 0.00 0.00 0.00 95 1012.2
20260508110230 1 261 0.0 0.0 0.00 0.00 0.00 95 1012.1
20260508105724 1 259 0.0 0.0 0.00 0.00 0.00 95 1012.2
20260508105221 1 257 0.0 0.0 0.00 0.00 0.00 95 1012.0
20260508104718 1 295 0.0 0.0 0.00 0.00 0.00 94 1012.0
20260508104215 1 295 0.0 0.0 0.00 0.00 0.00 94 1011.8
20260508103713 1 295 0.0 0.0 0.00 0.00 0.00 94 1012.2
20260508103210 1 295 0.0 0.0 0.00 0.00 0.00 94 1011.7
20260508102707 1 294 0.0 0.0 0.00 0.00 0.00 94 1011.7
20260508102205 1 295 0.0 0.0 0.00 0.00 0.00 93 1011.9